Weather History for Kendall, FL

Change the Weather History Date:

Sunday, January 20, 2013

  Actual Average Record
Temperature  
Mean Temperature 72 °F -  
Max Temperature 81 °F 76 °F 84 °F (1992)
Min Temperature 64 °F 58 °F 39 °F (1997)
Cooling Degree Days 8    
Growing Degree Days 22 (Base 50)    
Moisture  
Dew Point 65 °F    
Average Humidity 89    
Maximum Humidity 100    
Minimum Humidity 52    
Precipitation  
Precipitation 0.01 in - - ()
Sea Level Pressure  
Sea Level Pressure 30.09 in    
Wind  
Wind Speed 2 mph (North)    
Max Wind Speed 6 mph    
Max Gust Speed -    
Visibility 6 miles    
Events Fog    
Averages and records for this station are not official NWS values.
T = Trace of Precipitation, MM = Missing Value Source: NWS Daily Summary

Daily Weather History Graph

Daily Weather History Graph

Search for Another Location

Airport:

Trip Planner

Search our weather history database for the weather conditions in past years. The results will help you decide how hot, cold, wet, or windy it might be!

Date:

Astronomy

Jan. 20, 2013 Rise Set
Actual Time 7:09 AM EST 5:56 PM EST
Civil Twilight 6:44 AM EST 6:21 PM EST
Nautical Twilight 6:16 AM EST 6:49 PM EST
Astronomical Twilight 5:49 AM EST 7:16 PM EST
Moon 12:55 PM EST 1:43 AM EST
Length of Visible Light 11h 36m
Length of Day
10h 47m
Waxing Gibbous, 66% of the Moon is Illuminated
Jan 20
Waxing Gibbous
Jan 26
Full
Feb 3
Last Quarter
Feb 10
New
Feb 17
First Quarter

Hourly Weather History & Observations

Time (EST) Temp. Heat Index Dew Point Humidity Pressure Visibility Wind Dir Wind Speed Gust Speed Precip Events Conditions
12:53 AM 64.0 °F - 62.1 °F 93% 30.11 in 10.0 mi Calm Calm - N/A   Clear
1:23 AM 64.4 °F - 62.6 °F 94% 30.10 in 8.0 mi Calm Calm - N/A   Scattered Clouds
1:32 AM 64.4 °F - 62.6 °F 94% 30.10 in 2.5 mi North 4.6 mph - N/A   Mostly Cloudy
1:38 AM 64.4 °F - 64.4 °F 100% 30.10 in 0.8 mi North 3.5 mph - N/A   Mist
1:53 AM 64.9 °F - 64.9 °F 100% 30.10 in 0.5 mi NE 3.5 mph - N/A Fog Fog
2:05 AM 64.4 °F - 64.4 °F 100% 30.09 in 0.5 mi Calm Calm - N/A Fog Fog
2:28 AM 64.4 °F - 64.4 °F 100% 30.09 in 0.8 mi Calm Calm - N/A   Mist
2:36 AM 64.4 °F - 64.4 °F 100% 30.08 in 1.2 mi North 3.5 mph - N/A   Overcast
2:53 AM 64.9 °F - 64.9 °F 100% 30.08 in 2.5 mi NW 3.5 mph - N/A   Overcast
3:02 AM 64.4 °F - 64.4 °F 100% 30.08 in 3.0 mi Calm Calm - N/A   Overcast
3:08 AM 64.4 °F - 64.4 °F 100% 30.09 in 1.8 mi Calm Calm - N/A   Overcast
3:33 AM 64.4 °F - 64.4 °F 100% 30.08 in 0.8 mi NNW 3.5 mph - N/A   Mist
3:43 AM 64.4 °F - 64.4 °F 100% 30.08 in 0.5 mi Calm Calm - N/A Fog Fog
3:53 AM 64.9 °F - 64.9 °F 100% 30.08 in 0.5 mi ENE 3.5 mph - N/A Fog Fog
4:53 AM 64.9 °F - 64.9 °F 100% 30.09 in 0.5 mi NW 3.5 mph - 0.01 in Fog Fog
5:12 AM 64.4 °F - 64.4 °F 100% 30.09 in 2.0 mi Calm Calm - N/A   Overcast
5:20 AM 64.4 °F - 64.4 °F 100% 30.09 in 7.0 mi Calm Calm - N/A   Overcast
5:34 AM 64.4 °F - 64.4 °F 100% 30.10 in 1.8 mi WNW 5.8 mph - N/A   Overcast
5:41 AM 64.4 °F - 64.4 °F 100% 30.11 in 3.0 mi WNW 5.8 mph - N/A   Overcast
5:53 AM 64.9 °F - 64.9 °F 100% 30.11 in 8.0 mi NW 4.6 mph - N/A   Overcast
6:41 AM 66.2 °F - 64.4 °F 94% 30.11 in 10.0 mi NNW 3.5 mph - N/A   Overcast
6:53 AM 66.0 °F - 64.9 °F 96% 30.11 in 10.0 mi North 4.6 mph - N/A   Overcast
7:53 AM 66.0 °F - 64.9 °F 96% 30.13 in 9.0 mi NNE 4.6 mph - N/A   Mostly Cloudy
8:53 AM 68.0 °F - 66.9 °F 96% 30.15 in 8.0 mi ENE 4.6 mph - N/A   Mostly Cloudy
9:03 AM 68.0 °F - 66.2 °F 94% 30.15 in 10.0 mi ENE 3.5 mph - N/A   Partly Cloudy
9:53 AM 71.1 °F - 66.9 °F 87% 30.17 in 10.0 mi WNW 3.5 mph - N/A   Partly Cloudy
10:53 AM 75.9 °F - 66.9 °F 74% 30.14 in 10.0 mi NNW 4.6 mph - N/A   Clear
11:53 AM 79.0 °F - 64.0 °F 60% 30.11 in 10.0 mi Variable 4.6 mph - N/A   Clear
12:53 PM 81.0 °F 81.9 °F 62.1 °F 52% 30.06 in 10.0 mi Calm Calm - N/A   Clear
1:53 PM 80.1 °F 81.2 °F 62.1 °F 54% 30.04 in 10.0 mi Calm Calm - N/A   Mostly Cloudy
2:53 PM 79.0 °F - 63.0 °F 58% 30.03 in 10.0 mi SE 5.8 mph - N/A   Overcast
3:53 PM 79.0 °F - 62.1 °F 56% 30.03 in 10.0 mi South 4.6 mph - N/A   Mostly Cloudy
4:53 PM 77.0 °F - 62.1 °F 60% 30.04 in 10.0 mi South 4.6 mph - N/A   Mostly Cloudy
5:53 PM 75.0 °F - 64.9 °F 71% 30.04 in 10.0 mi SE 4.6 mph - N/A   Mostly Cloudy
6:53 PM 73.0 °F - 64.9 °F 76% 30.05 in 10.0 mi SE 3.5 mph - N/A   Mostly Cloudy
7:53 PM 71.1 °F - 64.9 °F 81% 30.05 in 10.0 mi Calm Calm - N/A   Clear
8:53 PM 68.0 °F - 66.0 °F 93% 30.06 in 10.0 mi Calm Calm - N/A   Mostly Cloudy
9:53 PM 69.1 °F - 66.9 °F 93% 30.07 in 10.0 mi Calm Calm - N/A   Mostly Cloudy
10:53 PM 68.0 °F - 66.0 °F 93% 30.06 in 10.0 mi Calm Calm - N/A   Mostly Cloudy
11:45 PM 68.0 °F - 66.2 °F 94% 30.06 in 9.0 mi North 3.5 mph - N/A   Overcast
11:53 PM 68.0 °F - 66.9 °F 96% 30.06 in 8.0 mi Calm Calm - N/A   Overcast